Lexington Weather

Lexington, Massachusetts, USA

71°F
9/22/2021 2:17pm 
  • Lexington Conditions: Light rain, Mist, Overcast
  • Temperature: 71.4°F / 21.9°CColder 3.6°F than last hour.
  • Dew Point: 68.9°FIncreased 0.5°Fsince last hour.
  • Relative Humidity: 92%Increased 12.0% since last hour.
  • Wind: Wind from W W 2 mph, 10-min avg: 2 mph, gust: 8 mph
  • Barometer: 30.08 inFalling 0.02  inHg/hr Falling Slowly
  • Visibility: 2 miles
  • Rain Today: 0.00 in
  •   

Regional Weather Roundup
for Boston / Norton, MA

        
000
ASUS41 KBOX 192104
RWRBOX

REGIONAL WEATHER ROUNDUP
NATIONAL WEATHER SERVICE BOSTON/NORTON MA
500 PM EDT SUN SEP 19 2021

NOTE:  "FAIR" INDICATES FEW OR NO CLOUDS BELOW 12,000 FEET WITH NO 
SIGNIFICANT WEATHER AND/OR OBSTRUCTIONS TO VISIBILITY.

MAZALL-192200-
EASTERN MASSACHUSETTS
  
CITY           SKY/WX    TMP DP  RH WIND       PRES   REMARKS
BOSTON         MOSUNNY   68  52  56 SE8       30.14R                  
BEVERLY        SUNNY     72  55  55 E5        30.12S                  
LAWRENCE       SUNNY     73  53  49 N8        30.15S                  
BEDFORD        SUNNY     72  52  49 W6        30.12S                  
BLUE HILL      NOT AVBL                                               
NORWOOD        SUNNY     74  52  46 VRB5      30.13S                  
MARSHFIELD     SUNNY     68  50  52 NE6       30.14S                  
PLYMOUTH       SUNNY     67  47  48 NE8       30.14S                  
TAUNTON        SUNNY     71  49  45 E3        30.13S                  
NEW BEDFORD    SUNNY     71  46  40 NE8       30.13S                  
$$

MAZALL-192200-
CAPE COD AND THE ISLANDS
  
CITY           SKY/WX    TMP DP  RH WIND       PRES   REMARKS
FALMOUTH       SUNNY     66  48  52 N12       30.14S                  
HYANNIS        SUNNY     67  51  56 N12       30.13R                  
CHATHAM        SUNNY     67  51  56 N9        30.14R                  
PROVINCETOWN   SUNNY     66  54  65 NE9       30.15R                  
NANTUCKET      SUNNY     69  53  56 N16       30.12S                  
MARTHAS VNYRD  SUNNY     69  50  50 N14G22    30.13R                  
$$
 
MAZALL-192200-
CENTRAL AND WESTERN MASSACHUSETTS
  
CITY           SKY/WX    TMP DP  RH WIND       PRES   REMARKS
WORCESTER      SUNNY     71  50  47 NE3       30.16S                  
FITCHBURG      SUNNY     73  46  38 S5        30.14S                  
ORANGE         SUNNY     73  46  38 NW7       30.16S                  
SPRINGFIELD    MOSUNNY   74  44  34 NE5       30.13F                  
WESTFIELD      SUNNY     74  48  39 E5        30.14F                  
NORTH ADAMS    SUNNY     70  52  52 VRB5      30.17S                  
PITTSFIELD     SUNNY     68  52  56 NW13      30.17S                  
$$
 
RIZALL-192200-
RHODE ISLAND
  
CITY           SKY/WX    TMP DP  RH WIND       PRES   REMARKS
PROVIDENCE     MOSUNNY   75  50  41 W5        30.14S                  
NEWPORT        SUNNY     70  49  47 E7        30.14S                  
BLOCK ISLAND   SUNNY     69  48  47 NE8       30.15S                  
SMITHFIELD     SUNNY     71  53  52 NW7       30.15S                  
WESTERLY       MOSUNNY   73  53  49 CALM      30.14R                  
$$
 
CTZALL-192200-
CONNECTICUT
  
CITY           SKY/WX    TMP DP  RH WIND       PRES   REMARKS
BRADLEY INTL   MOSUNNY   74  43  32 N7        30.14F                  
HARTFORD       MOSUNNY   75  46  35 N9        30.14S                  
BRIDGEPORT     SUNNY     77  49  37 N7        30.14S                  
DANBURY        SUNNY     76  48  37 VRB3      30.16F                  
GROTON         SUNNY     71  57  61 S10       30.14R                  
NEW HAVEN      SUNNY     77  50  38 NE8       30.14F                  
CHESTER        FAIR      77  54  44 CALM      30.15S                  
MERIDEN        SUNNY     75  46  35 N8        30.15S                  
WILLIMANTIC    SUNNY     74  48  39 CALM      30.14S                  
OXFORD         SUNNY     72  51  47 VRB5      30.17S                  
$$

MEZ002-015-021-024-NHZ003-005-008-011-012-014-VTZ005-008-192200-
NORTHERN NEW ENGLAND
  
CITY           SKY/WX    TMP DP  RH WIND       PRES   REMARKS
PORTLAND ME    SUNNY     70  48  45 NW8       30.13S                  
BANGOR ME      MOSUNNY   69  46  43 N10       30.13R                  
CONCORD NH     SUNNY     74  47  38 NW7       30.13S                  
MANCHESTER NH  SUNNY     74  47  38 SW6       30.12R                  
NASHUA NH      MOSUNNY   73  50  44 CALM      30.14S                  
PORTSMOUTH NH  MOSUNNY   69  51  52 SE7       30.14R                  
JAFFREY NH     SUNNY     72  48  42 NW5       30.17R                  
KEENE NH       SUNNY     71  50  47 NW7       30.16R                  
BURLINGTON VT  MOSUNNY   68  44  42 N6        30.20S                  
MT. WASHINGTON MOSUNNY   45  28  53 NW10        N/A                   
$$

NYZ052-076-192200-
EASTERN NEW YORK
  
CITY           SKY/WX    TMP DP  RH WIND       PRES   REMARKS
ALBANY         MOSUNNY   68  50  52 N7        30.18F                  
NEW YORK CITY  MOSUNNY   77  50  38 N5        30.14F                  
$$
 
ANZALL-192200-
MARINE OBSERVATIONS
  
STATION/POSITION TIME  TEMP    WIND        PRES    VSBY  WAVE
                       AIR SEA DIR/SP/G                  HT/PER
                 (UTC) (F)     (DEG/KT/KT) (MB)    (MI)  (FT/S)
BOSTON BUOY      2040      67   50/  8/ 10 1020.8F
BUZZARDS BAY     2000           20/ 14/ 16 1021.3F
NANTUCKET SOUND  2050   67 72   10/ 14/ 17 1020.3R         2/ 3
MASS BAY-STELLWA 2004   65      30/  6/  8 1020.1F  1 7/8  5/ 6
ISLE OF SHOALS   2000   65     130/  3/  4 1019.9F
S OF BLOCK IS    2026      71                N/A           4/ 8
$$

......................KEY.........................
  SKY/WX - SKY CONDITION/PRESENT WEATHER
  TMP    - TEMPERATURE IN FAHRENHEIT
  DWPT   - DEWPOINT IN FAHRENHEIT
  RH     - RELATIVE HUMIDITY IN PERCENT
  WIND   - DIRECTION AND SPEED IN MPH
  PRES   - MEAN SEA LEVEL PRESSURE IN INCHES OF HG
  WCI    - WIND CHILL INDEX
  VSB    - VISIBILITY IN MILES
  HX     - HEAT INDEX
  TC     - TEMPERATURE IN CELSIUS
  VRB    - VARIABLE WIND DIRECTION
  N/A    - NOT AVAILABLE
  
      

Other recent Regional Weather Roundups

Wed Sep 22, 2:04pm

Wed Sep 22, 1:04pm

Wed Sep 22, 12:05pm

Wed Sep 22, 11:04am

Wed Sep 22, 10:04am

Wed Sep 22, 9:04am

Wed Sep 22, 8:04am

Wed Sep 22, 7:04am

Wed Sep 22, 6:04am

Wed Sep 22, 5:04am

Wed Sep 22, 4:04am

Wed Sep 22, 3:04am

Wed Sep 22, 2:04am

Wed Sep 22, 1:04am

Wed Sep 22, 12:04am

Tue Sep 21, 11:04pm

Tue Sep 21, 10:04pm

Tue Sep 21, 9:04pm

Tue Sep 21, 8:04pm

Tue Sep 21, 7:04pm

Tue Sep 21, 6:04pm

Tue Sep 21, 5:04pm

Tue Sep 21, 4:04pm

Tue Sep 21, 3:04pm

Tue Sep 21, 2:04pm

Tue Sep 21, 1:04pm

Tue Sep 21, 12:04pm

Tue Sep 21, 11:04am

Tue Sep 21, 10:04am

Tue Sep 21, 9:04am

Tue Sep 21, 8:04am

Tue Sep 21, 7:04am

Tue Sep 21, 6:04am

Tue Sep 21, 5:04am

Tue Sep 21, 4:04am

Tue Sep 21, 3:04am

Tue Sep 21, 2:04am

Tue Sep 21, 1:04am

Tue Sep 21, 12:04am

Mon Sep 20, 11:04pm

Mon Sep 20, 10:04pm

Mon Sep 20, 9:04pm

Mon Sep 20, 8:04pm

Mon Sep 20, 7:04pm

Mon Sep 20, 6:04pm

Mon Sep 20, 5:04pm

Mon Sep 20, 4:04pm

Mon Sep 20, 3:04pm

Mon Sep 20, 2:04pm

Mon Sep 20, 1:04pm

Mon Sep 20, 12:04pm

Mon Sep 20, 11:04am

Mon Sep 20, 10:04am

Mon Sep 20, 9:04am

Mon Sep 20, 7:04am

Mon Sep 20, 6:04am

Mon Sep 20, 5:04am

Mon Sep 20, 4:04am

Mon Sep 20, 3:04am

Mon Sep 20, 2:04am

Mon Sep 20, 1:04am

Mon Sep 20, 12:04am

Sun Sep 19, 11:04pm

Sun Sep 19, 10:04pm

Sun Sep 19, 9:04pm

Sun Sep 19, 8:04pm

Sun Sep 19, 7:04pm

Sun Sep 19, 6:04pm

Sun Sep 19, 4:04pm

Sun Sep 19, 3:04pm

Sun Sep 19, 2:05pm

Sun Sep 19, 1:04pm

Sun Sep 19, 12:04pm

Sun Sep 19, 11:04am

Sun Sep 19, 10:05am

Sun Sep 19, 9:04am

Sun Sep 19, 8:04am

Sun Sep 19, 7:04am

Sun Sep 19, 6:04am

Sun Sep 19, 5:04am

Sun Sep 19, 4:04am

Sun Sep 19, 3:04am

Sun Sep 19, 2:04am

Sun Sep 19, 1:04am

Sun Sep 19, 12:04am

Sat Sep 18, 11:05pm

Sat Sep 18, 10:04pm

Sat Sep 18, 9:04pm

Sat Sep 18, 8:04pm

Sat Sep 18, 7:04pm

Sat Sep 18, 6:04pm

Sat Sep 18, 5:04pm

Sat Sep 18, 4:04pm

Sat Sep 18, 3:04pm

Sat Sep 18, 2:04pm

Sat Sep 18, 1:04pm

Sat Sep 18, 12:04pm

Sat Sep 18, 11:04am

Sat Sep 18, 10:04am

Sat Sep 18, 9:04am

Sat Sep 18, 8:04am

Sat Sep 18, 7:04am

Sat Sep 18, 6:04am

Sat Sep 18, 5:04am

Sat Sep 18, 4:04am

Sat Sep 18, 3:04am

Sat Sep 18, 2:04am

Sat Sep 18, 1:04am

Sat Sep 18, 12:04am

Fri Sep 17, 11:04pm

Fri Sep 17, 10:04pm

Fri Sep 17, 9:04pm

Fri Sep 17, 8:04pm

Fri Sep 17, 7:04pm

Fri Sep 17, 6:04pm

Fri Sep 17, 5:04pm

Fri Sep 17, 4:04pm

Fri Sep 17, 3:04pm

Fri Sep 17, 2:04pm

Fri Sep 17, 1:04pm

Fri Sep 17, 12:05pm

Fri Sep 17, 11:04am

Fri Sep 17, 10:04am

Fri Sep 17, 9:04am

Fri Sep 17, 8:04am

Fri Sep 17, 7:04am

Fri Sep 17, 6:04am

Fri Sep 17, 5:04am

Fri Sep 17, 4:04am

Fri Sep 17, 3:04am

Fri Sep 17, 2:04am

Fri Sep 17, 1:04am

Fri Sep 17, 12:04am

Thu Sep 16, 11:04pm

Thu Sep 16, 10:04pm

Thu Sep 16, 9:04pm

Thu Sep 16, 8:04pm

Thu Sep 16, 7:04pm

Thu Sep 16, 6:04pm

Thu Sep 16, 5:04pm

Thu Sep 16, 4:04pm

Thu Sep 16, 3:04pm

Thu Sep 16, 2:04pm

Thu Sep 16, 1:05pm

Thu Sep 16, 12:04pm

Thu Sep 16, 11:05am

Thu Sep 16, 10:05am

Thu Sep 16, 9:04am

Thu Sep 16, 8:04am

Thu Sep 16, 7:04am

Thu Sep 16, 6:04am

Thu Sep 16, 5:04am

Thu Sep 16, 4:04am

Thu Sep 16, 3:04am

Thu Sep 16, 2:04am

Thu Sep 16, 1:04am

Thu Sep 16, 12:04am

Wed Sep 15, 11:04pm

Wed Sep 15, 10:04pm

Wed Sep 15, 9:04pm

Wed Sep 15, 8:04pm

Wed Sep 15, 7:04pm

Wed Sep 15, 6:04pm

Wed Sep 15, 5:05pm

Wed Sep 15, 4:04pm

Wed Sep 15, 3:04pm

Meta data:

ID: 8b9173c3-aac5-4d7e-b5a0-808b05805af7
Link: https://api.weather.gov/products/8b9173c3-aac5-4d7e-b5a0-808b05805af7